Location: Passau
(48.5830°N, 13.4830°E)
Time: 20:55:29
(UTC+02:00)

Vanguard 3 - Pass Details

Date: 23 May 2024
Orbit: 509 x 3231 km, 33.3° (Epoch: 16 June)

Event Time Altitude Azimuth Distance (km) Brightness Sun altitude
Rises 22:09:57 0° 254° (WSW) 4,719 11.4 -10.6°
Reaches altitude 10° 22:12:50 10° 247° (WSW) 4,057 10.9 -10.9°
Maximum altitude 22:23:26 41° 182° (S) 3,202 9.8 -12.0°
Drops below altitude 10° 22:39:23 10° 122° (ESE) 6,009 11.0 -13.6°
Enters shadow 22:39:38 10° 121° (ESE) 6,065 11.0 -13.6°
Sets 22:44:48 0° 116° (ESE) 7,159 - -14.1°
